{"data":{"norad_id":59427,"epoch":"2026-05-24T19:19:29.415648Z","epoch_age_seconds":95101,"freshness":"FRESH","line1":"1 59427U 24065G   26144.80520157  .00001399  00000+0  59360-4 0  9997","line2":"2 59427  53.1608 288.0936 0001272  79.2426 280.8718 15.30194567120581","mean_motion":15.30194567,"eccentricity":0.0001272,"inclination_deg":53.1608,"raan_deg":288.0936,"arg_perigee_deg":79.2426,"mean_anomaly_deg":280.8718,"bstar":5.936e-5,"rev_number":12058,"period_min":94.105679830191,"perigee_km":474.35954297935,"apogee_km":476.10303987269,"semimajor_km":6853.368291426,"source":"CELESTRAK","updated_at":"2026-05-25T13:38:18.945006Z"}}